GFSFLT1_sfc_temp_027.txt.gz
Temp
70 69 70 69 69 68 69 68 64 64 63 65 63 63 63 63 62 63 64 63 63 60 60 59 57 56 56 55 54 55 54 55
67 67 66 66 66 68 66 64 62 65 62 61 60 59 61 61 63 65 65 63 62 60 58 57 57 55 54 54 53 52 54 53
65 63 61 60 62 63 64 64 63 63 61 60 60 59 61 61 61 61 61 61 61 61 56 55 55 54 52 51 51 50 49 50
63 63 59 59 59 61 63 63 63 62 61 60 60 59 58 58 59 59 59 59 58 57 56 54 52 52 50 50 48 46 45 46
63 61 59 59 58 60 62 64 63 63 62 59 57 54 53 54 55 56 57 56 57 57 55 52 51 51 50 48 48 45 44 41
60 59 61 60 60 60 61 62 62 62 61 59 56 55 56 56 55 53 52 54 54 54 54 52 50 49 47 46 45 48 48 46
61 61 61 59 59 59 60 61 62 61 60 59 57 55 54 53 51 49 50 50 50 51 53 49 48 47 47 49 48 47 46 45
59 60 59 59 58 58 60 60 61 61 58 56 55 54 54 54 53 51 49 47 47 47 47 47 47 47 48 48 47 43 44 41
59 60 60 59 60 58 59 60 60 58 56 55 53 53 51 50 50 48 47 46 46 47 47 46 45 45 44 45 43 44 43 41
61 61 59 57 58 57 57 58 58 57 54 53 52 52 51 49 48 47 45 45 50 46 45 44 44 44 44 46 44 41 40 39
58 57 57 57 57 57 56 56 56 54 53 52 52 51 50 48 46 45 45 45 46 45 44 44 43 43 43 43 42 41 40 38
56 57 57 57 57 56 55 55 54 52 52 51 50 48 47 46 45 45 45 45 45 45 45 44 43 42 41 40 40 41 41 39
57 57 56 54 55 55 54 53 53 52 52 50 50 48 46 45 45 45 45 45 45 45 44 43 43 42 41 40 39 39 37 36
54 53 52 53 54 55 53 52 51 52 52 50 49 48 45 45 45 45 45 44 44 43 43 41 41 41 41 40 39 37 36 35
52 51 50 52 54 53 53 52 52 52 52 50 48 47 45 44 44 44 44 44 43 42 42 42 41 41 40 39 38 35 33 34
50 49 50 51 51 51 52 52 53 52 50 51 47 48 45 45 45 44 43 44 43 42 41 40 40 40 39 34 33 31 31 31
50 50 52 52 52 52 52 51 50 52 51 49 49 46 48 45 43 43 43 41 41 40 39 39 37 41 36 36 33 29 30 30
49 51 52 52 51 52 49 49 51 51 50 49 46 46 43 44 44 43 43 39 38 38 38 38 36 33 36 36 35 30 29 28
50 51 51 51 51 50 49 50 48 49 46 47 47 44 42 42 44 43 40 39 37 36 36 36 33 37 37 37 35 29 28 29

GFSFLT1_sfc_temp_033.txt.gz
Temp
60 60 61 60 59 60 60 61 61 60 58 57 56 59 58 58 56 56 56 56 55 53 53 53 55 51 50 49 48 49 47 46
59 59 60 60 57 58 59 59 58 58 57 56 55 53 54 53 55 55 55 55 57 55 53 51 50 49 48 48 47 46 45 44
57 56 55 56 57 56 57 59 59 58 58 55 55 53 53 52 52 53 54 55 53 53 50 50 50 50 47 46 45 45 44 42
55 55 53 53 55 56 57 57 58 58 57 56 54 53 52 51 51 50 51 51 51 50 49 48 47 46 44 44 43 42 41 41
55 53 51 53 53 54 56 57 57 57 57 56 55 53 51 49 48 48 48 50 50 50 49 47 46 45 44 44 45 41 41 39
56 58 57 57 55 53 54 56 56 56 55 54 52 52 50 49 48 48 49 49 49 49 48 46 45 44 43 42 41 41 40 39
55 57 56 54 53 52 53 54 54 54 53 53 52 50 48 47 47 49 47 46 45 45 46 44 43 43 42 41 41 40 39 38
52 54 56 56 55 53 53 53 53 53 52 51 50 49 48 48 48 45 44 43 42 43 44 43 42 42 42 41 40 39 38 37
56 57 55 55 53 52 52 53 52 52 50 50 49 50 48 47 46 44 42 42 42 43 43 43 42 42 41 40 39 39 38 37
52 52 52 51 52 51 51 51 51 50 49 48 48 48 46 45 44 42 42 42 44 42 42 41 41 41 41 39 38 37 37 36
50 50 51 51 51 51 50 50 50 49 49 48 48 47 46 44 42 42 42 42 42 42 41 41 40 40 39 38 37 37 35 35
49 50 51 51 50 49 48 48 49 48 48 47 46 45 44 43 42 42 42 42 42 42 43 42 41 41 40 38 37 36 35 33
49 50 50 50 48 49 49 49 48 48 48 47 45 44 43 42 41 42 42 41 43 42 41 41 41 41 40 37 36 35 34 32
47 49 47 48 50 50 49 48 47 47 46 44 44 43 43 42 42 41 41 41 40 40 42 39 40 40 39 37 35 34 32 32
47 48 48 48 50 48 46 46 46 46 45 44 43 42 42 41 41 40 40 40 39 39 40 39 40 40 38 36 34 32 31 31
47 47 47 47 46 45 45 45 45 45 44 43 42 42 42 41 40 40 40 39 39 39 39 39 39 39 37 32 32 31 30 29
47 46 46 45 45 44 45 44 44 44 43 42 42 42 41 40 39 39 38 37 39 39 35 35 35 38 37 37 35 30 30 30
43 43 44 44 44 45 43 44 44 42 41 42 41 40 39 39 39 38 37 36 39 34 34 36 34 33 37 37 35 31 29 28
44 43 43 42 42 43 43 43 41 41 40 40 40 39 38 37 37 35 33 33 35 35 33 33 31 33 35 33 32 26 25 26

GFSFLT1_sfc_temp_036.txt.gz
Temp
56 56 57 57 58 60 60 61 60 56 56 56 56 57 54 54 53 54 55 56 56 54 52 51 51 50 48 47 47 48 46 45
55 55 56 57 57 59 60 59 59 58 55 53 52 51 51 51 52 53 54 53 52 50 49 49 48 47 46 46 45 45 44 43
54 53 54 55 56 56 56 57 57 58 56 54 53 51 50 50 50 50 50 50 50 51 48 47 46 46 45 44 43 42 43 42
53 54 52 52 53 54 56 57 57 56 55 53 51 51 50 49 48 48 48 50 49 48 48 46 45 45 44 43 42 41 39 41
53 52 52 52 52 53 55 56 56 56 54 54 52 50 49 47 46 47 47 48 48 48 47 46 45 44 44 42 44 41 40 38
52 53 55 52 51 51 52 54 55 54 54 53 50 48 47 46 46 46 47 47 47 48 47 46 44 43 42 41 41 40 39 38
53 54 54 51 51 50 52 54 52 53 52 52 51 48 46 46 46 46 45 45 45 45 45 43 43 42 41 41 40 40 39 37
52 54 52 53 55 55 52 52 52 51 51 50 49 48 48 48 47 45 44 43 42 42 42 42 42 42 41 40 39 38 37 36
51 55 55 52 51 51 51 52 51 50 50 49 49 49 47 47 46 44 43 42 42 42 42 42 41 41 40 40 38 38 37 36
50 50 50 50 50 50 50 50 49 49 49 48 47 47 46 45 44 42 41 41 43 42 41 40 40 40 40 39 38 39 38 37
48 48 49 49 49 49 49 48 48 48 47 46 47 45 44 43 42 42 41 41 41 40 40 39 39 41 40 40 38 37 36 36
46 47 48 48 48 49 47 47 48 47 46 45 44 43 43 42 41 41 41 41 40 40 40 40 42 39 40 39 38 38 36 35
46 47 47 47 48 48 47 47 48 45 45 44 43 43 42 41 41 41 40 39 40 40 39 39 37 39 39 38 37 37 34 33
45 46 46 47 49 49 49 46 44 45 45 43 42 41 40 40 39 39 39 39 39 38 38 37 37 39 38 38 37 34 33 33
45 45 45 47 49 48 44 44 44 44 44 42 41 40 39 39 39 39 39 39 37 37 38 39 39 38 37 37 35 33 32 32
45 45 46 48 44 44 44 43 44 43 43 41 40 40 39 39 38 38 38 38 38 39 40 39 35 36 37 34 34 32 31 30
45 46 46 45 44 43 43 43 43 42 41 40 40 39 39 38 37 37 36 36 36 39 37 36 34 38 37 37 35 30 30 29
45 44 43 43 43 44 42 42 41 40 39 40 39 39 37 37 36 36 34 32 34 35 34 34 32 32 36 35 33 29 27 26
43 42 42 41 41 41 40 40 39 39 39 38 38 37 36 35 34 34 32 35 36 35 32 31 30 32 34 34 32 27 25 26

GFSFLT1_sfc_temp_039.txt.gz
Temp
61 62 62 64 64 63 63 63 60 57 55 57 58 58 60 61 62 62 63 63 62 63 62 61 62 62 61 60 59 60 59 58
61 62 64 65 65 66 60 62 60 60 59 57 58 58 60 61 63 62 62 62 62 61 62 61 61 60 58 57 58 56 58 56
60 62 63 65 64 65 65 64 64 65 67 67 66 64 63 62 61 60 61 61 61 61 60 60 59 60 58 57 55 55 56 55
59 60 61 62 64 64 66 66 66 66 66 64 63 62 61 61 61 61 60 60 60 60 59 60 59 59 57 56 55 52 52 54
61 61 61 62 63 64 66 65 65 64 64 65 64 66 65 61 60 61 62 59 59 59 59 58 57 58 56 55 56 53 52 50
61 62 63 63 62 62 63 64 64 62 63 64 64 60 59 59 60 58 59 59 58 57 57 57 56 57 55 54 53 52 53 50
62 62 62 62 61 62 62 62 61 62 62 61 60 59 58 59 59 59 59 58 58 57 57 56 55 54 53 53 52 51 51 50
61 61 62 62 61 59 61 63 61 61 60 60 60 60 59 59 59 59 58 59 58 58 55 54 54 53 53 52 51 50 50 49
61 62 62 62 61 61 61 61 59 60 60 59 60 59 61 60 58 57 57 56 56 55 54 53 52 51 51 50 50 48 49 47
61 61 60 60 60 59 59 60 59 58 57 59 58 58 56 55 55 55 54 53 53 53 53 52 51 51 50 50 49 48 48 47
57 57 57 58 59 59 58 58 55 55 57 56 56 55 54 54 53 53 52 53 53 52 52 51 51 50 50 50 49 48 47 47
55 56 57 57 57 57 56 55 55 55 55 55 54 54 54 53 53 53 52 52 52 51 51 50 49 48 47 47 47 46 45 45
55 55 56 57 57 57 53 53 53 54 55 54 53 53 53 52 52 52 51 50 51 50 49 48 46 44 43 42 40 45 43 42
54 54 55 55 54 55 53 53 53 55 55 55 53 52 51 51 50 50 50 50 49 48 47 46 42 43 42 44 44 42 42 41
54 53 54 54 54 53 51 51 54 54 54 53 51 50 49 49 49 49 48 48 46 46 46 45 44 42 44 44 43 42 41 41
53 52 53 53 51 49 52 53 53 53 52 51 50 49 48 48 48 47 46 45 45 45 44 42 43 43 44 42 42 40 39 39
51 51 51 51 50 52 51 51 51 50 50 48 48 47 47 47 46 45 44 43 43 42 40 42 40 42 37 35 37 39 37 36
50 50 50 50 51 51 51 50 49 48 48 48 46 46 46 45 44 44 42 42 42 39 38 37 38 39 35 35 33 37 35 35
49 50 49 50 50 50 48 49 48 47 46 45 45 45 43 43 42 42 41 41 37 37 36 38 39 38 34 33 32 35 34 34

GFSFLT1_sfc_temp_045.txt.gz
Temp
82 83 85 86 82 80 76 73 69 65 65 65 65 63 66 69 68 69 70 71 71 72 71 70 70 70 68 67 64 66 66 66
79 81 82 83 81 77 72 68 67 72 73 70 69 68 71 72 74 72 72 72 71 70 71 70 69 68 66 66 65 63 63 65
78 78 79 78 74 72 71 72 73 75 77 77 76 75 76 76 74 72 72 71 70 72 68 69 68 67 66 64 62 61 61 63
76 76 75 73 70 70 73 76 78 79 79 79 78 76 74 73 72 72 71 71 71 70 69 68 67 66 64 63 62 60 58 60
77 77 72 72 74 77 80 80 79 79 78 77 74 74 70 71 75 75 72 70 70 70 69 67 65 65 63 63 64 60 59 56
76 76 77 78 78 78 79 79 79 77 76 77 75 74 75 75 74 70 69 70 70 69 68 66 65 64 63 61 61 59 58 54
77 78 78 77 77 77 77 77 77 76 75 75 74 71 71 71 69 69 69 70 70 69 68 66 65 63 62 61 60 59 55 55
76 76 76 75 74 74 75 76 74 74 73 73 72 70 69 68 68 68 67 67 67 66 65 63 63 62 61 61 59 58 55 54
75 76 76 75 74 74 74 75 73 73 72 71 71 70 71 70 68 66 65 65 65 65 63 62 61 61 60 59 59 57 56 53
75 76 76 76 74 73 73 74 72 72 70 69 68 68 67 65 65 65 65 64 64 63 62 60 60 59 58 58 58 56 54 53
76 76 75 76 75 74 73 74 72 71 69 68 68 65 65 66 64 63 62 62 62 61 59 59 58 58 58 57 56 56 52 52
76 76 76 75 74 73 71 72 70 68 68 65 62 63 65 64 64 63 62 61 60 59 58 58 57 56 57 55 53 51 49 50
76 76 74 72 71 71 70 69 68 67 65 59 62 64 65 63 63 62 61 59 59 58 57 56 56 56 56 51 46 49 48 48
75 74 71 70 70 70 69 68 67 63 58 63 64 64 63 62 61 60 59 58 57 56 56 54 54 54 51 49 47 49 47 47
73 71 70 70 70 68 67 65 63 59 64 65 63 62 62 60 60 58 57 56 55 55 54 53 52 49 50 49 48 47 46 47
71 69 69 69 68 66 65 63 63 63 64 63 62 61 60 59 58 56 55 55 54 54 53 52 51 49 49 46 47 45 45 46
70 70 69 68 66 64 63 63 63 63 61 60 60 59 58 57 55 54 54 53 53 53 51 49 45 47 36 36 38 44 45 45
69 69 68 67 65 63 63 63 62 60 58 59 58 56 55 55 55 54 52 51 52 50 47 45 43 43 36 35 35 42 43 44
68 68 67 66 65 64 63 61 59 57 57 57 57 55 54 54 53 52 51 51 49 46 45 43 42 42 36 35 34 40 43 43

GFSFLT1_sfc_temp_048.txt.gz
Temp
81 82 80 80 77 74 72 67 65 64 63 63 64 64 63 64 63 63 64 65 66 64 62 61 61 60 58 56 55 55 54 53
79 78 78 78 74 72 68 65 66 65 67 66 64 63 63 64 65 66 65 66 66 63 62 61 60 58 57 57 54 53 51 53
76 77 76 76 73 69 69 69 67 69 70 70 68 66 66 67 66 65 66 65 65 64 61 60 59 57 56 55 53 51 51 51
75 75 74 73 70 67 68 70 70 71 72 71 70 68 66 65 64 63 64 65 65 64 61 59 57 56 54 53 53 51 48 49
76 74 69 69 68 70 71 71 72 74 72 70 67 66 64 65 64 66 64 65 64 64 62 60 57 56 54 53 56 51 49 47
75 70 70 70 70 69 71 73 74 72 71 70 67 66 63 66 64 62 63 62 63 63 61 59 57 55 54 53 51 50 49 47
75 73 72 70 71 71 71 73 73 71 71 70 67 67 65 63 62 60 61 61 61 61 62 57 56 54 53 51 51 50 48 47
73 73 73 72 71 70 71 72 71 70 69 68 67 65 64 63 61 60 59 59 57 57 57 55 54 53 52 51 50 48 48 46
73 72 72 71 70 70 70 72 70 70 68 67 65 65 62 62 61 60 58 57 56 57 55 54 54 53 51 50 48 47 48 45
73 73 72 71 70 69 69 70 70 68 66 65 63 63 61 59 60 60 57 57 59 54 53 52 52 51 51 49 47 47 47 44
73 73 72 72 71 70 68 70 68 68 66 63 63 62 61 60 60 58 57 55 55 53 52 52 51 51 50 49 47 47 44 43
72 73 73 73 71 70 69 69 66 65 64 62 58 59 60 60 59 57 56 55 54 53 52 51 50 50 49 48 46 45 43 43
73 74 72 71 69 67 67 67 66 64 62 58 58 57 58 59 57 57 55 53 53 52 52 51 51 50 48 46 43 43 43 41
74 74 70 69 69 68 67 65 64 62 60 59 57 58 59 58 56 55 55 53 52 51 51 49 49 47 46 45 44 43 42 42
74 73 71 69 68 68 66 63 61 60 59 59 59 59 58 56 55 55 53 52 51 50 49 49 48 46 47 46 45 42 41 42
74 71 69 69 67 66 65 61 60 60 60 59 58 57 57 55 54 52 52 51 50 50 49 48 46 46 44 40 41 40 39 39
72 72 70 68 67 64 62 61 60 61 59 56 57 57 56 54 51 51 50 49 49 48 47 45 42 46 36 37 36 36 38 38
70 70 69 67 64 64 60 61 60 58 56 56 56 55 53 51 52 51 49 47 47 45 42 42 42 41 37 37 36 35 35 35
69 68 67 65 63 63 60 60 57 55 54 55 55 53 51 51 50 49 47 46 45 42 41 41 40 42 37 36 35 32 33 35

GFSFLT1_sfc_temp_051.txt.gz
Temp
73 74 74 71 71 68 65 64 60 59 58 58 57 57 56 57 56 57 59 60 60 57 56 56 55 54 53 52 51 51 50 49
71 70 72 70 66 65 63 61 60 60 58 57 56 54 55 56 57 60 60 60 60 57 55 55 54 53 51 52 50 49 48 47
69 69 70 68 66 63 62 62 60 61 61 60 59 58 57 58 58 58 59 59 59 59 55 54 53 52 51 50 49 46 46 47
67 68 64 65 61 61 63 63 62 63 64 62 59 58 57 56 56 56 58 60 60 57 56 54 53 51 50 48 48 47 44 45
68 66 61 62 60 63 64 65 63 64 65 62 59 56 57 56 56 56 57 59 59 58 57 54 53 51 50 48 51 46 45 42
68 65 63 63 63 64 61 64 65 65 66 62 60 57 57 57 57 59 57 58 58 59 56 53 51 50 49 48 46 46 44 43
67 66 67 65 62 61 61 63 64 64 62 61 60 58 58 59 58 57 56 56 54 54 55 51 50 49 48 47 46 45 44 43
63 65 63 64 60 61 62 65 62 63 62 60 59 58 57 57 54 53 53 53 53 52 51 50 49 48 48 47 45 44 43 42
62 63 63 64 62 61 67 62 62 62 61 59 58 58 56 54 55 55 54 53 53 50 50 49 48 48 47 46 44 43 43 40
62 62 63 61 61 61 61 61 61 61 60 58 57 55 55 55 55 54 53 53 55 51 48 48 47 47 47 46 43 42 41 40
61 62 62 63 62 62 61 61 61 61 62 61 59 55 56 55 55 55 55 52 52 51 48 47 47 47 46 45 42 42 40 39
61 61 64 63 62 61 62 60 62 62 60 57 55 56 57 57 57 54 53 52 51 49 48 48 48 46 45 42 41 41 40 39
62 62 62 63 65 66 65 62 61 60 57 55 55 56 57 56 55 54 52 51 50 49 48 48 46 46 44 43 40 41 39 39
62 62 65 66 66 64 63 61 58 57 57 55 55 56 56 54 55 52 51 49 49 47 49 47 46 45 43 43 41 40 40 40
64 64 65 65 63 62 60 56 56 57 57 55 54 54 54 52 51 51 48 49 47 48 48 47 44 43 43 42 42 39 39 39
63 60 58 58 57 57 57 56 56 57 56 55 52 52 52 52 50 49 49 49 48 48 47 44 42 43 42 38 38 37 36 36
61 60 60 59 58 56 57 55 56 57 53 52 53 52 52 49 48 48 48 46 46 47 44 42 40 44 38 38 37 34 35 34
62 60 60 59 58 57 56 56 55 53 51 52 53 51 49 48 49 48 47 45 45 43 41 40 39 39 38 38 37 33 32 31
59 57 55 56 57 57 56 55 52 51 51 51 50 48 48 48 48 46 45 44 43 39 38 39 38 39 38 37 36 31 31 31

GFSFLT1_sfc_temp_054.txt.gz
Temp
69 70 69 68 67 65 64 62 59 57 57 56 56 55 54 55 55 56 57 57 57 55 53 53 53 51 50 49 49 49 47 46
70 69 68 67 63 63 62 60 58 59 57 57 55 53 54 54 55 57 57 57 57 54 53 52 51 51 49 50 48 47 46 45
67 67 67 66 62 63 61 61 59 60 59 57 56 55 54 54 55 56 57 56 55 55 53 52 51 49 49 48 47 45 44 44
64 65 64 63 61 60 62 61 60 60 60 59 56 55 54 53 53 53 55 57 57 55 53 51 51 49 48 46 45 45 42 42
64 65 61 61 60 60 62 61 61 60 60 59 56 55 55 53 53 53 55 57 56 55 54 52 50 49 47 47 47 44 42 41
63 63 63 62 60 60 61 62 62 61 62 60 58 54 54 53 53 54 54 54 55 55 52 50 49 47 46 46 44 44 42 41
64 62 63 60 61 61 61 62 61 60 61 59 58 56 54 53 53 53 53 53 51 53 51 49 48 47 46 45 44 43 41 40
59 59 60 60 60 61 61 60 60 60 59 59 57 56 55 54 54 52 51 51 51 51 50 50 49 48 47 45 43 42 41 39
61 60 61 60 60 59 62 61 59 58 58 56 55 55 53 53 55 54 53 52 50 51 49 50 49 49 47 43 42 40 40 38
59 59 59 59 58 58 59 60 59 58 56 55 54 55 54 55 53 54 52 51 52 50 50 49 47 45 44 43 41 40 39 38
58 59 58 59 60 58 57 60 61 58 57 58 58 56 54 54 54 51 50 49 51 50 49 47 46 45 44 43 40 40 39 38
59 60 60 61 61 59 58 59 58 57 58 55 54 55 55 54 52 51 51 50 50 49 49 47 46 45 45 42 40 41 40 38
60 60 60 60 61 61 59 61 60 57 55 54 54 55 54 53 51 51 50 49 49 48 47 46 46 45 44 42 40 40 38 37
60 60 60 60 62 62 58 56 54 55 55 53 54 54 53 51 51 49 48 48 46 46 46 46 45 44 42 42 41 40 39 38
60 60 60 61 59 58 56 55 55 55 55 55 53 53 53 50 49 48 47 48 45 46 47 46 44 42 42 41 40 38 37 38
58 55 55 56 57 54 53 54 55 55 54 53 51 51 48 49 48 45 48 46 47 47 46 43 42 42 42 39 39 36 35 35
58 55 56 56 54 51 52 52 53 52 51 51 51 50 49 47 46 46 45 47 46 45 43 41 38 42 40 39 37 33 34 33
54 55 55 54 52 52 50 50 50 49 49 50 50 49 47 47 48 47 46 44 44 42 40 40 39 38 38 38 37 32 32 31
52 51 51 51 51 50 49 50 49 47 47 48 48 46 45 46 45 45 43 43 41 39 37 38 36 38 38 38 37 31 30 30

GFSFLT1_sfc_temp_057.txt.gz
Temp
64 64 65 65 63 62 61 60 58 57 56 56 55 54 54 55 55 55 56 56 56 53 52 51 51 49 49 48 47 46 46 45
64 64 64 62 60 59 59 58 56 57 56 54 53 52 52 53 54 56 56 56 55 52 51 50 50 49 48 49 46 46 44 42
63 64 62 61 60 60 58 59 57 58 58 55 55 53 53 53 54 55 55 55 54 53 51 50 50 48 48 47 46 43 42 42
63 63 61 60 59 59 60 60 59 59 58 56 53 53 53 52 52 52 53 54 54 53 51 50 49 48 46 45 44 44 42 41
65 63 61 61 61 62 62 60 59 59 59 56 54 53 51 51 52 52 53 54 54 53 52 49 48 47 46 45 46 44 42 41
64 64 63 62 61 60 60 59 59 59 59 58 55 52 52 52 51 52 51 52 53 52 50 48 47 46 45 44 43 42 42 42
64 65 63 61 59 59 58 59 59 60 59 57 55 53 53 52 50 50 50 49 49 49 50 48 49 46 45 44 43 43 40 38
58 59 60 59 58 59 59 59 60 59 59 57 56 54 54 53 52 52 49 47 48 49 50 48 47 47 46 47 44 42 40 38
57 59 59 59 60 60 59 60 60 58 57 56 55 54 53 51 51 51 50 51 49 49 47 47 49 49 48 45 42 40 39 37
58 59 59 59 60 59 59 59 58 57 57 54 53 52 52 51 53 52 50 48 48 46 49 48 48 48 46 44 40 39 38 37
56 58 58 58 59 59 58 58 58 56 55 54 54 53 54 54 51 48 48 48 47 47 47 46 47 46 44 42 40 39 39 37
56 58 58 59 58 56 57 56 56 54 54 52 51 51 52 51 50 49 47 47 48 47 45 45 46 44 42 41 40 39 39 37
58 58 58 56 57 57 57 57 56 54 52 52 52 52 51 49 47 47 48 47 46 47 46 45 44 44 42 40 39 39 38 36
55 55 57 58 58 57 54 52 51 52 54 53 51 50 49 48 48 48 48 47 46 45 44 44 44 42 40 40 39 38 38 37
55 54 55 56 55 53 51 52 53 53 53 52 50 49 49 49 47 45 45 46 45 45 45 44 42 41 40 40 40 37 36 36
55 53 52 53 52 51 51 52 53 53 52 51 50 50 48 46 46 45 47 46 47 46 45 43 41 40 40 38 37 35 33 33
55 53 53 53 51 49 50 51 51 52 51 49 49 48 48 47 46 45 46 46 46 44 42 40 38 40 40 39 37 33 33 32
51 51 50 49 49 50 48 47 48 48 49 49 48 47 46 46 46 46 44 43 43 42 41 39 37 37 39 39 38 33 31 31
47 47 46 46 46 46 47 48 48 48 47 47 47 46 45 45 44 42 42 42 40 38 37 37 35 37 38 39 37 32 30 30

GFSFLT1_sfc_temp_060.txt.gz
Temp
60 60 61 61 60 60 60 59 57 56 56 55 55 55 55 55 55 55 55 55 55 54 52 50 50 48 47 47 46 45 45 45
60 60 61 60 59 58 58 57 56 57 55 54 53 52 52 53 54 55 55 56 54 52 50 49 49 48 48 47 45 45 43 43
59 59 59 59 59 59 58 58 56 57 58 54 54 53 52 53 53 54 55 54 52 52 49 48 48 47 46 46 46 43 42 42
59 59 59 60 59 58 59 58 57 58 58 55 52 52 52 51 51 51 52 53 53 52 50 48 48 47 45 44 44 44 41 41
60 60 58 59 59 59 59 58 57 57 57 55 54 53 51 51 51 51 52 52 52 51 50 48 46 45 45 44 45 43 42 41
59 61 61 59 57 57 57 58 57 57 58 57 55 52 52 53 51 52 51 50 51 50 49 46 45 45 45 46 45 44 43 41
61 61 59 56 56 56 57 57 57 58 58 57 55 54 52 53 50 51 49 48 47 47 47 46 46 45 47 46 43 43 41 40
58 57 58 55 56 57 58 57 57 58 58 57 56 56 54 53 51 50 47 46 45 45 46 45 46 46 46 47 46 44 43 40
59 60 59 57 58 58 59 58 59 58 58 58 57 56 54 52 52 52 47 47 47 46 47 46 47 47 47 46 44 43 41 37
59 59 58 57 57 58 59 59 60 59 59 57 55 54 52 50 48 50 49 48 47 46 45 46 45 47 46 44 42 40 38 37
54 56 57 58 59 60 60 59 59 58 57 55 55 52 51 50 50 48 47 47 47 46 45 46 45 45 45 44 39 39 38 36
53 55 57 57 58 58 58 58 58 54 54 52 49 49 49 49 49 48 48 46 46 45 46 45 45 45 42 40 39 38 37 37
54 54 55 55 56 56 56 56 55 53 50 49 48 49 49 48 46 47 46 46 46 47 46 46 45 42 40 39 38 39 37 36
53 54 54 56 56 54 53 52 51 50 50 49 48 49 48 47 46 47 47 46 46 46 46 44 43 41 40 39 39 39 38 38
53 52 53 54 53 51 49 48 50 50 50 50 49 47 48 46 48 46 46 46 45 44 45 45 42 41 41 40 39 37 36 36
53 52 51 51 50 48 48 48 50 50 50 49 48 49 48 46 46 45 45 44 45 46 45 43 42 42 41 38 37 35 34 33
51 51 51 49 48 48 48 48 48 49 49 47 47 47 46 45 45 44 44 45 45 44 42 42 40 41 40 39 37 34 34 33
47 47 47 46 46 47 46 45 46 46 48 48 47 46 45 45 45 44 43 42 42 41 41 40 37 36 39 40 39 33 33 32
43 43 42 42 44 44 45 46 45 46 46 46 46 45 44 44 43 43 42 41 40 38 37 36 34 36 38 39 38 34 32 31

GFSFLT1_sfc_temp_063.txt.gz
Temp
67 67 68 69 69 70 69 69 67 66 65 65 66 66 65 65 65 65 64 65 64 64 63 62 64 63 62 62 61 60 61 61
67 68 68 69 68 68 68 66 66 65 63 61 61 61 63 63 64 64 64 65 64 60 64 62 63 63 61 60 59 59 59 60
65 66 67 67 67 67 67 67 65 66 68 66 66 65 65 64 64 63 64 64 62 60 62 61 62 60 59 59 59 58 59 58
64 64 65 66 66 66 67 67 66 67 68 66 63 63 62 60 60 62 62 61 60 62 61 61 60 61 60 59 59 57 56 56
67 66 65 66 66 67 67 67 66 66 66 66 64 65 63 62 62 61 59 59 61 62 61 60 59 60 59 58 58 58 56 54
67 67 68 67 66 65 66 66 66 65 64 65 64 63 62 60 61 58 59 59 62 61 60 59 58 59 57 57 55 51 50 49
69 70 69 68 65 65 65 65 65 64 64 63 63 62 59 57 59 59 60 61 60 59 59 59 58 56 56 51 54 49 49 49
67 67 67 66 64 64 65 65 64 63 61 62 62 62 59 59 60 58 58 59 58 56 57 56 55 55 53 50 53 52 46 48
67 68 68 65 64 64 63 64 65 63 60 60 60 60 60 60 57 59 59 58 56 56 56 55 54 53 49 48 51 48 50 51
66 67 67 66 65 64 63 65 65 64 62 60 60 61 60 57 57 61 60 58 55 54 54 53 51 50 48 47 47 46 51 51
63 66 65 66 66 68 64 66 66 65 64 62 62 61 60 58 57 58 57 55 55 53 51 47 47 48 47 49 47 51 50 50
63 64 66 66 66 66 65 66 66 65 64 62 60 62 59 57 55 55 54 54 51 48 48 48 46 46 47 46 50 51 49 49
64 64 64 63 64 65 65 64 64 64 63 60 59 57 54 53 51 52 51 50 48 48 47 48 48 47 45 48 49 50 48 48
63 62 63 63 64 63 62 61 60 60 58 55 53 52 51 51 50 50 51 48 47 46 46 46 45 47 48 49 50 49 49 48
64 62 62 61 61 61 61 58 57 55 54 54 53 52 51 49 48 47 46 48 46 44 45 45 45 48 51 50 49 49 48 48
61 60 60 60 58 56 56 55 55 55 53 52 51 51 51 48 46 46 49 46 45 47 46 48 49 49 50 50 49 48 47 47
58 59 58 56 55 55 53 54 54 56 54 50 49 48 48 45 46 44 44 47 45 46 44 43 43 48 42 40 43 48 47 46
51 52 53 53 53 53 52 52 53 53 52 50 49 47 45 44 44 46 45 45 44 43 44 48 47 48 40 39 39 47 46 46
48 49 49 50 51 51 51 53 51 50 47 46 45 45 45 45 45 45 44 43 46 48 47 47 46 46 39 38 38 46 46 46

GFSFLT1_sfc_temp_066.txt.gz
Temp
72 75 77 76 75 77 76 76 75 74 74 74 76 77 78 77 74 71 70 70 70 72 73 71 72 71 70 71 69 70 71 71
75 74 77 78 77 77 76 75 75 74 74 74 74 73 75 75 71 73 72 72 71 71 73 70 72 71 70 68 68 66 67 69
74 75 76 75 75 75 76 77 77 76 78 76 76 75 77 76 71 72 71 70 71 71 71 70 70 70 67 66 66 66 67 67
74 74 75 75 75 75 77 78 78 76 77 77 77 77 76 73 68 68 70 68 72 70 68 71 69 69 67 66 67 65 64 63
77 75 75 75 75 77 78 78 78 76 76 76 73 74 73 74 70 71 67 69 68 68 69 69 68 70 68 67 67 66 64 59
78 78 77 78 77 76 76 78 77 77 76 76 74 73 76 75 71 70 68 66 66 67 69 68 68 68 67 66 64 62 57 61
80 81 81 80 78 76 76 76 77 76 74 73 73 73 72 68 68 66 61 63 64 66 69 68 68 67 65 64 62 59 55 57
80 81 80 80 79 76 76 76 76 76 73 73 72 72 71 68 67 66 64 61 63 65 66 66 66 66 64 61 59 52 53 53
80 81 82 80 79 76 75 75 74 74 70 71 71 68 67 66 67 66 61 59 64 67 66 66 65 64 61 52 58 58 50 50
80 81 81 80 79 76 75 76 76 76 70 71 67 67 63 64 66 64 58 60 65 65 64 64 62 58 50 51 50 50 49 53
77 79 80 79 79 79 76 77 77 78 75 69 69 67 68 66 64 62 58 61 66 63 62 59 48 48 49 51 48 48 50 54
76 77 78 78 79 78 76 75 77 77 76 72 67 66 65 64 62 60 58 59 62 61 57 49 48 46 47 47 46 48 51 56
77 77 76 76 76 76 76 75 76 76 75 72 64 63 61 57 55 54 56 53 52 48 48 46 46 46 45 44 46 54 55 55
77 75 74 75 75 75 75 74 73 72 67 62 56 54 53 52 51 50 49 48 46 47 48 46 44 44 45 49 53 56 56 55
78 77 75 74 73 71 68 63 62 60 58 55 52 52 51 50 49 49 47 48 47 46 46 46 45 47 50 55 56 55 55 55
75 75 73 73 70 69 68 62 58 57 55 53 52 52 51 49 48 47 48 46 47 47 46 45 48 51 53 52 55 55 55 54
70 71 69 66 65 65 63 61 57 57 54 51 51 50 51 51 47 46 48 48 47 46 44 45 47 50 46 42 44 53 54 53
64 65 65 64 63 63 61 60 59 57 54 53 53 53 50 48 48 46 46 45 46 45 48 48 50 55 43 41 39 50 52 52
60 61 61 62 62 62 61 62 60 58 56 55 54 51 49 48 46 45 46 49 49 53 54 53 53 54 41 39 38 49 51 52

GFSFLT1_sfc_temp_072.txt.gz
Temp
68 66 65 63 61 62 61 62 63 63 63 64 66 70 72 72 70 70 69 69 68 67 67 65 65 64 62 62 61 62 60 60
72 71 68 66 63 63 63 64 64 64 64 64 67 66 69 68 70 71 69 69 69 65 67 66 64 63 62 62 61 59 58 59
72 71 69 67 66 65 65 66 68 68 68 70 71 70 71 72 72 69 69 68 69 67 66 65 64 63 62 60 60 57 57 58
70 70 68 68 67 68 71 71 71 71 72 74 72 71 69 70 68 67 67 69 69 67 66 65 64 64 61 59 59 58 55 55
71 71 70 69 69 71 73 75 75 74 74 74 70 70 68 69 68 69 67 68 69 70 67 65 64 63 62 60 63 58 57 53
71 73 72 72 73 72 73 75 76 75 75 72 71 68 69 70 71 67 66 66 67 69 65 64 63 63 62 61 60 60 57 53
77 76 75 75 73 74 74 75 76 74 74 72 70 68 68 69 66 65 66 65 64 64 64 61 61 62 60 59 60 59 54 52
76 76 75 76 74 73 74 74 74 75 73 71 71 70 69 68 67 66 64 62 61 62 61 60 61 60 59 58 57 55 51 50
78 80 78 77 76 74 74 74 74 75 74 72 72 72 71 70 69 67 66 63 61 60 60 60 60 59 57 56 51 51 50 49
81 81 79 79 77 75 73 74 75 75 74 73 72 72 71 69 67 65 63 64 63 61 60 59 56 54 52 50 48 46 46 46
80 82 80 81 80 79 75 75 76 76 76 73 73 72 71 70 66 62 62 62 61 58 56 55 50 49 48 47 46 46 45 45
79 80 81 82 81 76 77 76 77 77 77 74 71 70 65 63 62 62 60 59 57 55 51 49 47 46 46 45 44 44 44 44
80 79 80 80 80 80 76 76 76 77 76 73 70 67 63 60 59 56 55 54 52 50 49 47 47 47 46 44 43 44 44 43
80 79 78 78 78 76 78 76 76 76 71 64 61 58 55 52 51 51 51 50 48 48 48 47 45 44 44 45 45 45 45 46
80 78 78 77 77 76 76 69 67 64 61 58 54 52 51 50 49 49 49 49 47 46 47 46 46 46 46 46 47 46 47 49
79 79 77 76 74 65 64 62 61 59 56 52 50 50 49 49 49 49 48 47 48 47 46 46 46 46 47 47 48 48 47 48
78 79 76 73 65 61 58 56 55 55 51 49 49 48 48 47 47 47 47 47 46 46 45 45 44 48 44 43 44 45 47 46
73 75 72 68 61 60 56 53 53 51 50 50 50 49 48 47 48 47 46 45 45 45 45 46 47 47 44 42 40 44 43 43
72 71 68 64 61 58 56 54 52 52 51 51 50 49 48 47 47 45 45 45 46 47 48 48 48 45 39 39 38 42 41 42

GFSFLT1_sfc_temp_075.txt.gz
Temp
59 59 59 58 58 59 58 58 58 57 56 57 58 60 63 64 64 65 64 64 65 62 61 61 61 61 60 59 58 57 57 57
59 58 58 56 57 57 57 58 57 58 56 57 59 59 63 65 65 66 65 66 65 62 61 61 60 60 59 59 58 57 55 55
59 58 57 56 56 58 58 59 59 60 61 62 61 62 65 66 63 64 66 64 64 62 61 60 60 59 59 58 57 54 54 54
59 58 57 57 57 58 59 61 62 62 64 64 64 61 62 61 60 61 63 65 64 64 61 60 60 60 58 56 56 55 52 51
62 60 59 58 59 61 61 63 64 65 65 65 64 64 63 65 63 66 63 64 65 65 64 61 60 60 57 58 59 56 54 53
64 63 62 63 63 63 63 64 65 67 66 67 65 64 65 62 62 64 64 64 64 65 66 62 59 59 58 57 57 56 56 53
67 67 66 64 65 65 66 67 68 68 67 67 67 61 64 63 59 61 63 63 64 64 63 61 60 59 58 57 56 57 53 52
66 66 66 65 65 66 67 68 68 69 70 69 66 63 63 65 62 62 61 59 59 60 59 57 57 57 57 57 56 53 49 48
67 68 67 68 68 68 68 69 69 70 68 69 64 67 67 64 62 63 62 61 61 58 57 56 57 57 57 55 51 49 48 47
70 70 70 69 69 68 69 70 71 71 65 68 65 64 66 66 62 62 61 59 59 58 57 56 55 54 52 50 49 47 47 46
70 72 71 72 72 72 70 71 71 71 71 67 68 68 65 64 64 60 59 60 59 57 56 54 52 50 49 48 46 46 46 45
69 67 74 74 74 72 71 69 71 71 72 68 67 66 66 64 60 59 58 57 56 55 52 52 49 47 47 46 46 46 45 44
69 70 67 70 68 71 71 70 69 67 69 65 67 64 60 59 59 59 57 55 54 52 51 49 47 47 47 47 45 45 45 44
67 69 69 66 67 68 70 70 66 64 67 65 59 57 55 55 54 53 53 51 51 50 48 47 47 45 45 45 46 45 45 45
67 66 67 68 64 61 60 58 58 57 55 54 54 53 52 50 50 51 50 49 48 47 47 46 45 46 46 47 47 46 45 46
67 66 64 60 58 56 55 53 52 53 52 50 49 50 49 49 48 48 47 47 47 47 46 45 46 46 47 46 47 46 45 45
65 66 64 61 57 54 52 51 51 51 50 49 49 49 47 47 47 47 47 46 46 45 45 44 44 47 43 43 44 42 43 42
65 64 61 58 54 53 50 51 51 50 49 49 48 48 47 47 47 46 45 44 44 44 45 45 44 45 41 41 40 41 40 39
61 58 56 54 52 50 50 50 51 50 49 48 48 47 46 46 46 45 44 45 45 44 43 43 43 41 39 39 38 37 36 36

GFSFLT1_sfc_temp_078.txt.gz
Temp
57 58 59 59 59 58 58 59 59 58 58 58 60 61 63 62 60 60 62 62 62 60 60 59 59 58 57 57 57 55 55 54
56 58 59 58 58 58 57 57 58 58 57 58 61 62 57 58 59 61 61 62 62 60 59 58 58 59 58 57 55 55 53 53
56 55 57 56 57 55 55 56 56 57 58 60 60 58 57 58 60 61 61 62 61 60 60 59 58 57 57 56 56 53 53 52
56 55 54 56 56 55 55 56 57 58 59 59 57 57 57 57 58 60 61 62 63 62 60 60 58 58 57 55 55 54 53 52
56 55 53 53 54 55 57 58 58 59 60 60 59 60 60 62 63 63 62 63 63 62 62 60 58 58 56 56 56 55 55 54
56 56 56 56 57 56 57 59 60 61 61 62 61 59 61 61 59 60 60 61 62 63 62 61 58 57 57 55 56 56 55 53
59 59 59 58 59 58 58 58 60 62 62 62 61 60 61 60 59 59 60 61 62 62 62 60 60 58 57 56 55 56 54 51
59 58 58 59 59 59 60 60 60 62 63 63 62 62 61 62 60 62 62 61 61 62 62 61 60 59 57 57 56 55 52 50
61 60 60 61 61 61 60 61 61 63 63 63 63 64 64 63 64 62 62 62 62 62 62 62 57 56 56 55 52 49 49 49
63 63 62 62 62 62 62 63 64 65 65 65 64 64 64 64 63 62 62 62 62 61 60 58 56 55 53 51 49 48 49 48
65 66 65 64 63 63 62 64 65 67 68 67 67 65 64 65 60 60 60 60 59 58 57 56 54 53 51 50 49 48 47 46
66 67 68 67 67 65 63 63 65 66 67 65 66 66 63 62 59 58 57 57 57 57 56 55 53 52 50 48 48 47 46 45
66 68 68 68 67 67 67 65 65 68 68 67 64 64 62 61 58 58 58 56 57 57 54 53 51 49 48 47 46 46 46 45
63 62 63 68 68 67 67 66 66 67 65 62 60 58 59 61 60 58 58 57 54 53 52 50 48 47 46 46 47 46 46 46
63 62 62 62 65 67 65 64 65 62 58 56 54 54 54 54 55 54 54 53 51 49 49 48 47 46 47 47 47 46 46 46
64 62 58 57 55 55 55 54 53 54 53 52 50 50 50 51 50 50 49 49 48 48 47 46 46 47 47 46 46 46 45 45
64 63 59 57 54 52 52 53 52 52 50 49 49 49 49 48 48 48 46 46 46 46 45 45 44 47 42 42 45 44 44 42
62 62 60 56 53 52 51 51 51 50 50 50 49 49 47 46 47 46 45 45 45 44 45 46 45 45 41 41 40 41 37 35
58 55 52 50 51 52 51 51 50 49 49 49 48 48 46 46 46 45 44 45 45 44 44 44 43 41 39 39 38 35 33 33

GFSFLT1_sfc_temp_084.txt.gz
Temp
58 58 58 58 58 58 57 57 57 57 57 58 58 59 60 62 61 62 61 61 60 58 58 58 58 56 55 54 54 53 53 53
58 58 58 57 57 57 57 56 56 57 57 56 58 60 58 59 61 62 60 61 60 58 58 58 57 56 55 54 54 53 52 51
57 56 56 56 56 57 57 58 57 58 58 57 59 62 59 59 59 60 61 61 60 59 59 57 56 55 54 54 54 52 53 51
54 55 55 56 55 56 57 58 59 60 59 58 58 59 59 58 57 57 59 60 60 61 58 58 56 56 55 55 53 53 51 49
52 56 56 55 56 57 58 58 59 60 61 60 59 61 60 63 59 59 59 60 59 59 59 57 56 56 54 55 54 52 52 49
51 53 54 58 58 56 56 57 57 58 60 60 55 61 62 55 55 56 55 56 58 59 58 57 56 56 56 54 52 51 51 50
53 54 56 56 58 58 56 54 54 57 57 56 54 53 54 54 53 53 54 54 55 57 58 58 58 57 56 55 55 54 54 54
53 52 53 54 54 55 56 54 54 55 55 55 55 54 54 57 58 57 56 54 54 56 57 57 58 58 58 58 55 54 53 52
55 54 53 52 53 54 54 53 54 55 55 55 55 56 56 57 58 59 56 57 56 56 57 59 59 59 59 57 57 56 55 53
56 57 56 54 54 53 53 54 54 55 55 56 55 56 57 57 57 55 55 55 56 56 56 58 58 57 56 56 56 54 53 54
56 57 57 57 57 56 55 56 55 56 56 56 57 56 57 57 56 56 57 56 56 57 57 58 56 56 56 55 54 53 52 51
57 58 59 59 58 57 56 56 56 56 57 57 57 58 58 58 58 58 58 57 58 58 58 57 56 56 55 54 54 52 51 50
57 57 57 58 57 57 57 57 57 58 58 58 58 59 59 58 59 60 60 58 58 59 58 58 57 56 54 53 51 51 50 48
56 56 57 58 58 58 58 58 57 59 59 59 59 58 58 59 60 60 59 58 59 58 58 58 58 55 52 51 50 49 49 49
56 56 57 59 59 59 58 58 58 58 59 59 58 57 58 58 58 57 56 57 58 57 58 58 56 53 52 50 49 48 47 47
57 58 57 58 57 58 59 59 58 58 57 57 57 56 55 55 54 54 55 57 57 58 54 52 51 50 49 49 48 47 47 45
61 61 59 56 57 57 55 54 53 55 56 55 52 52 52 52 51 51 50 50 50 49 48 47 46 47 43 42 45 46 45 43
61 61 61 59 53 51 50 51 52 52 51 51 50 50 49 49 49 49 48 47 46 45 45 46 45 44 40 41 41 43 40 38
58 58 51 50 49 50 51 52 51 50 50 49 49 49 48 47 47 46 45 45 45 44 44 45 44 41 38 38 37 38 35 35

GFSFLT1_sfc_temp_087.txt.gz
Temp
61 62 60 60 59 58 58 59 59 58 59 59 60 60 61 61 60 64 65 66 65 64 66 64 64 65 64 64 64 64 64 65
62 60 59 59 59 58 57 57 58 58 59 58 59 57 59 60 62 62 64 67 65 66 66 65 65 64 65 64 62 62 62 63
60 58 58 58 58 58 58 57 58 59 60 59 61 59 61 61 61 61 61 62 64 65 66 66 64 65 64 63 64 63 65 63
59 57 58 58 57 57 58 58 59 59 58 58 57 60 59 58 59 59 61 63 66 67 66 66 65 66 65 64 65 64 64 62
61 58 57 58 59 59 59 59 59 60 60 60 58 61 60 62 61 61 61 63 66 68 67 67 66 66 66 66 65 64 64 62
60 60 60 59 60 59 61 60 60 61 60 62 61 63 66 62 62 62 62 66 67 67 67 67 66 65 65 64 62 62 63 64
62 63 62 61 60 59 59 59 61 61 62 63 61 64 64 61 64 63 63 64 65 65 67 66 66 65 64 64 64 63 63 63
61 60 60 61 59 59 58 58 60 61 61 64 62 63 63 64 63 64 63 62 62 64 64 64 65 65 65 65 64 63 63 62
62 62 62 61 60 58 58 58 58 61 61 62 63 64 64 64 65 66 64 64 65 65 64 65 66 66 65 65 64 64 63 61
63 63 62 62 61 59 57 57 57 60 61 61 62 63 63 64 64 65 65 65 65 65 65 65 66 66 65 65 64 62 62 61
64 64 62 63 62 61 57 58 58 62 62 62 62 62 63 64 64 63 65 65 66 66 65 65 66 65 65 64 62 61 59 57
63 65 65 64 63 62 59 59 61 61 62 62 62 62 62 63 63 63 64 65 65 65 66 65 64 61 57 56 57 58 55 55
64 64 65 64 63 62 62 61 61 62 62 62 61 62 62 61 61 63 64 64 65 64 65 63 62 60 59 57 57 56 55 54
63 63 63 64 64 63 63 62 62 63 63 62 61 61 61 61 60 61 62 62 64 64 63 63 60 59 58 58 56 55 54 53
65 64 64 65 64 64 64 64 63 64 63 62 61 61 62 62 61 62 63 65 64 65 64 63 61 60 59 57 54 53 52 52
65 65 65 65 64 63 64 64 63 64 63 62 62 63 64 64 63 64 64 64 63 64 62 62 59 57 54 53 52 50 50 48
68 66 65 64 64 63 62 62 62 63 62 61 63 63 62 62 62 62 61 60 59 59 58 56 53 51 44 43 47 48 48 43
68 66 66 65 64 62 61 60 61 61 61 61 57 56 56 55 54 54 54 53 50 50 48 48 46 45 40 41 41 44 40 38
67 66 63 60 59 59 57 57 55 55 54 53 53 52 52 51 50 49 47 47 46 46 45 45 42 39 38 38 37 37 36 35

GFSFLT1_sfc_temp_090.txt.gz
Temp
71 69 67 65 62 62 61 62 60 61 61 60 61 61 61 61 62 67 67 68 67 68 68 67 68 68 70 73 70 73 74 73
71 70 65 65 60 60 61 62 61 61 59 58 59 58 60 60 61 66 69 68 67 69 68 67 67 70 70 70 70 67 67 69
69 69 65 63 60 59 61 64 63 65 62 60 61 60 60 60 61 64 70 69 70 71 72 70 71 69 69 67 66 67 69 69
69 67 66 63 61 61 60 61 62 65 65 62 59 59 58 59 59 60 66 72 73 73 73 73 71 72 68 67 69 70 69 70
72 69 67 65 64 64 66 61 62 64 63 64 60 60 61 64 62 64 64 70 72 74 74 73 71 70 70 71 72 71 71 70
73 71 69 67 65 65 65 64 61 62 65 64 61 61 68 66 64 63 63 64 65 69 72 71 71 72 72 72 71 70 72 71
75 74 72 69 65 65 66 66 62 61 62 62 61 60 62 63 62 61 62 64 66 66 75 73 73 72 71 71 71 69 69 70
74 73 71 70 65 64 66 66 64 63 62 63 64 66 67 68 66 66 64 68 67 69 72 71 71 71 72 71 70 70 69 68
75 75 73 72 68 65 63 64 65 66 66 63 67 70 72 72 71 72 71 71 72 71 71 71 71 71 71 71 71 71 71 69
77 76 74 73 71 68 65 66 68 67 66 67 67 69 71 71 72 72 73 72 73 73 71 71 71 71 71 71 71 70 70 68
79 78 75 75 73 72 68 68 68 70 70 69 69 69 70 71 71 70 71 72 72 72 71 71 71 71 71 71 71 70 67 66
78 79 78 76 75 73 69 67 68 69 71 70 70 70 70 70 70 71 71 71 72 71 71 71 71 71 72 71 70 68 63 60
78 78 77 76 74 73 70 68 68 69 71 71 70 70 70 69 69 70 71 70 71 71 72 71 71 71 71 68 62 57 57 58
77 76 76 76 75 74 73 71 70 71 71 71 69 68 69 69 69 69 70 69 70 71 70 70 70 70 70 66 60 58 58 60
78 76 76 76 76 75 75 74 73 72 71 71 69 68 69 69 69 69 68 68 68 68 69 70 70 70 70 69 65 59 58 58
78 78 77 77 76 75 75 75 73 73 71 70 69 69 70 70 69 69 68 67 68 70 70 70 70 69 68 65 59 57 56 54
80 80 79 77 76 75 74 73 73 71 70 70 71 70 70 69 69 68 69 69 70 70 69 68 65 58 43 44 48 53 49 44
78 80 78 77 77 75 75 73 73 70 69 70 70 70 69 69 69 69 68 67 66 60 51 49 46 44 40 40 41 43 40 38
78 80 80 78 77 76 74 74 71 68 69 69 69 67 66 64 62 58 52 50 48 47 44 42 39 38 37 37 37 36 35 34

GFSFLT1_sfc_temp_093.txt.gz
Temp
79 78 74 72 67 63 62 63 65 63 61 61 61 62 62 63 62 63 64 67 69 74 73 72 74 72 71 71 69 73 75 75
79 76 73 69 65 63 64 61 62 61 62 59 59 58 60 60 61 63 64 66 68 69 70 71 70 70 67 67 67 68 71 73
76 74 71 66 64 62 64 65 65 64 64 64 60 59 59 60 60 61 63 64 67 67 66 67 68 66 66 67 67 67 69 69
76 74 70 66 64 63 64 65 66 66 63 64 63 61 60 59 60 60 63 65 68 68 68 68 67 66 68 69 68 68 66 66
79 75 73 66 67 67 65 65 65 66 68 66 62 62 61 62 61 62 64 67 68 68 70 68 68 71 69 64 69 68 70 69
79 77 75 73 67 69 67 64 64 65 66 67 65 64 62 62 61 60 63 65 66 70 72 71 69 70 69 68 70 70 71 69
82 80 78 75 69 67 69 65 64 64 66 66 65 62 61 62 60 59 61 63 65 67 73 71 73 72 71 71 71 70 69 70
80 78 76 74 69 66 68 66 63 63 64 65 66 65 64 64 62 62 60 61 62 64 66 68 71 71 71 71 70 70 69 67
81 80 78 76 71 69 68 67 65 64 63 64 67 65 63 64 68 67 65 63 63 65 65 67 71 72 71 71 70 70 69 67
81 82 79 77 73 71 70 70 70 67 65 65 64 65 65 66 67 71 70 69 70 69 68 69 71 73 72 72 70 69 69 69
82 83 80 79 77 74 71 72 72 71 70 67 68 66 67 69 69 69 71 71 73 73 72 72 72 71 72 71 70 71 70 69
83 84 83 81 79 76 72 72 74 73 71 70 69 68 69 70 70 73 71 70 71 72 72 71 71 71 72 71 71 71 70 70
84 85 83 81 79 77 74 73 73 74 74 72 70 71 71 71 72 71 73 73 73 73 73 73 73 73 73 71 70 71 70 69
84 84 83 81 80 78 76 74 73 75 75 74 72 72 72 71 72 72 73 71 71 72 73 72 72 72 72 72 72 71 70 67
83 83 83 83 80 79 78 75 74 75 74 74 72 72 72 73 73 73 72 73 72 72 73 73 72 73 73 73 73 71 68 65
83 83 82 83 81 80 80 78 75 75 74 74 73 73 73 73 73 72 72 72 72 72 72 72 72 71 71 70 70 65 65 61
83 84 84 82 82 81 80 79 78 76 74 73 74 73 72 72 72 71 71 71 71 70 70 70 68 52 40 43 48 52 47 43
83 82 84 84 83 83 81 80 80 76 75 74 74 73 72 71 71 71 70 69 67 55 50 48 43 42 39 39 40 40 38 37
81 83 84 86 86 86 83 82 79 76 75 74 74 73 72 72 71 68 56 53 48 44 41 40 37 37 37 37 37 36 34 34

GFSFLT1_sfc_temp_096.txt.gz
Temp
79 78 74 71 67 65 63 61 63 63 62 61 63 64 64 64 63 63 64 64 67 69 66 67 67 68 64 64 63 64 63 64
77 76 72 69 64 62 62 61 61 61 59 58 60 60 61 61 63 64 63 64 65 66 65 66 64 64 63 63 62 62 61 63
74 72 70 66 63 62 63 62 62 62 61 60 59 60 60 60 60 61 62 63 64 65 64 64 64 63 62 62 61 60 61 61
73 71 69 66 63 61 63 64 63 62 62 60 59 59 59 58 58 59 61 62 63 64 63 63 62 63 62 61 62 61 59 59
74 72 68 65 63 64 65 66 65 62 64 62 60 58 56 58 59 58 59 60 61 63 64 63 62 63 62 62 64 62 62 58
74 73 71 68 66 65 65 65 65 64 63 63 62 61 61 60 58 58 58 60 60 63 63 61 61 62 61 61 62 61 62 61
77 76 74 69 66 64 65 64 64 64 65 63 63 62 60 59 59 58 59 60 61 62 64 62 63 63 61 62 62 63 62 62
76 74 72 70 65 65 63 63 62 63 64 64 64 62 61 60 60 60 60 60 61 62 63 62 62 63 64 64 64 63 62 60
77 75 73 71 65 65 65 64 63 63 64 63 64 63 63 62 62 62 61 61 62 64 64 65 63 64 64 65 62 62 61 61
78 76 74 71 67 65 65 65 65 63 63 64 64 64 64 63 63 63 62 62 63 62 63 64 62 65 66 63 62 61 61 61
78 78 74 74 70 68 66 67 66 64 64 64 65 64 63 64 63 63 63 63 64 63 62 63 63 63 64 64 63 62 62 61
78 79 77 76 72 70 68 68 69 66 65 64 64 64 63 64 64 65 65 64 64 64 64 64 64 65 65 64 63 63 62 62
79 79 77 76 73 71 68 68 69 68 67 65 64 64 64 64 64 65 66 65 66 66 67 66 66 66 66 63 62 63 62 61
80 80 78 77 75 72 70 69 69 70 69 67 65 65 64 64 65 66 66 67 67 67 67 66 66 65 65 64 64 63 63 63
80 80 80 78 77 75 73 70 70 71 70 68 66 65 65 65 66 66 66 67 66 66 67 67 66 66 67 66 66 64 64 63
80 79 78 79 78 76 75 72 71 71 70 69 67 67 67 67 66 67 67 67 67 67 66 66 66 66 64 58 63 61 57 45
79 81 81 79 78 76 75 74 71 70 70 69 70 68 68 67 67 66 66 66 66 66 65 63 56 48 39 41 47 45 43 39
78 78 80 79 78 78 76 75 73 70 70 70 70 69 68 67 67 67 65 64 62 56 47 44 40 39 38 38 38 38 36 35
70 75 77 78 80 80 78 79 76 71 70 71 71 69 68 67 66 64 53 48 44 41 39 38 36 36 36 36 35 34 33 32

GFSFLT1_sfc_temp_099.txt.gz
Temp
69 66 64 60 59 59 61 59 59 61 60 60 60 60 62 61 62 63 63 64 68 68 65 63 66 65 63 64 61 59 59 60
67 64 61 59 58 60 59 60 60 59 59 59 59 60 61 61 61 63 62 62 64 65 64 63 61 65 66 65 59 61 58 59
65 61 59 57 59 60 60 61 60 60 60 59 60 61 62 62 62 62 62 61 62 65 64 62 62 62 62 60 60 57 57 58
63 62 58 57 60 60 60 61 59 61 60 59 59 59 59 59 60 60 60 61 62 64 64 62 60 60 61 60 61 60 57 57
64 61 57 57 60 62 62 62 61 61 59 59 59 57 57 59 59 60 59 60 61 62 63 63 62 61 60 61 62 59 59 57
62 62 60 59 60 62 63 62 61 61 61 60 60 58 58 59 58 58 58 59 60 62 63 62 61 61 60 60 60 61 60 57
65 64 61 58 59 61 62 62 60 61 62 62 61 58 57 55 57 57 57 58 59 60 62 61 61 60 60 60 60 60 60 59
65 61 60 58 58 61 62 61 60 61 61 60 61 58 58 57 57 57 57 56 57 58 60 60 60 61 62 61 60 60 60 57
66 63 61 59 59 59 62 61 60 61 61 61 62 60 59 59 59 59 59 58 59 61 61 62 62 62 61 60 59 60 60 59
66 65 63 60 60 59 60 61 62 61 62 62 62 61 59 59 60 61 61 61 62 61 62 62 60 62 61 60 59 60 60 58
68 66 64 61 61 61 59 61 63 62 62 62 63 62 61 60 60 60 61 61 62 62 62 62 62 60 61 61 60 60 60 58
69 68 67 63 62 61 60 60 60 60 63 63 63 62 61 62 60 60 62 61 61 61 62 62 62 60 58 59 60 60 58 58
71 69 68 65 63 62 61 61 61 60 61 63 63 62 60 59 60 61 62 61 60 61 61 62 61 61 61 59 58 61 58 57
69 69 69 66 64 63 62 63 63 62 61 61 61 61 59 59 60 61 62 62 61 61 61 60 60 60 61 61 61 60 58 59
68 69 70 68 67 65 64 64 64 64 62 61 60 61 60 60 61 61 61 63 62 61 62 62 61 62 63 63 62 59 58 55
69 69 70 71 67 67 66 65 65 64 64 62 60 61 62 61 61 62 62 63 64 64 64 64 64 65 62 60 60 55 47 41
63 64 65 67 70 68 67 65 65 66 64 63 63 62 62 61 61 60 61 61 63 61 62 62 56 47 39 43 47 44 42 38
60 60 62 64 64 70 68 67 67 66 66 64 64 63 62 62 62 62 61 57 58 48 44 43 40 39 39 39 39 39 36 35
59 58 59 61 64 67 66 69 67 66 65 66 65 64 63 63 61 61 56 48 44 41 38 38 36 36 36 36 36 35 33 33

GFSFLT1_sfc_temp_102.txt.gz
Temp
65 62 61 59 58 58 58 57 58 61 61 59 60 61 61 62 63 63 64 64 65 64 63 61 63 62 60 61 59 57 57 58
62 61 59 57 57 57 57 57 59 59 58 58 58 59 60 61 62 64 64 63 65 65 64 63 63 62 61 60 59 59 55 57
60 58 57 57 57 56 56 57 60 60 59 58 58 59 61 61 61 63 63 62 64 66 65 65 63 63 60 60 59 55 55 56
58 57 56 55 56 56 57 57 59 59 60 59 59 59 61 59 60 59 61 61 63 66 64 64 63 64 62 62 62 60 60 56
59 57 55 55 56 57 57 57 57 58 60 59 58 59 59 60 60 60 58 59 60 63 62 63 63 63 61 63 63 60 59 58
59 57 57 56 57 57 57 57 57 58 59 60 58 58 59 60 60 58 58 59 60 61 62 60 60 61 59 60 60 58 59 56
61 59 57 55 56 58 57 57 57 59 59 60 59 57 57 57 58 57 57 58 59 60 60 60 59 59 58 59 59 59 58 57
58 55 55 55 55 57 58 57 58 59 59 60 59 58 58 58 58 57 57 57 57 58 59 58 59 59 59 59 59 59 59 57
59 57 56 56 56 57 58 58 59 60 60 57 59 60 59 59 59 59 58 58 57 58 60 61 60 61 59 59 59 58 59 57
59 59 57 57 57 57 57 58 60 60 60 60 59 59 58 59 60 60 59 59 58 57 58 59 60 60 60 59 59 58 58 58
61 60 58 58 58 59 58 59 61 61 61 61 61 59 58 58 59 59 59 58 58 57 58 60 60 60 61 60 60 59 58 58
63 62 60 59 59 58 58 59 60 61 61 61 61 60 59 57 58 58 59 59 59 60 60 60 59 57 59 60 59 59 58 58
65 65 61 59 58 58 58 59 60 61 62 61 61 61 60 58 57 57 59 58 58 59 61 61 60 59 58 58 59 60 58 57
58 61 61 59 59 59 59 59 59 60 61 62 61 60 60 59 57 58 59 59 58 59 59 60 60 60 59 57 58 57 56 57
57 57 58 59 60 60 60 60 60 60 60 60 60 60 60 60 59 58 58 59 57 58 59 59 59 59 59 60 59 58 57 55
59 59 56 59 60 60 60 60 61 60 59 59 59 60 61 60 59 58 59 59 59 58 59 59 59 59 59 58 59 57 53 42
58 59 60 59 60 60 62 61 61 60 59 58 59 59 60 60 59 58 58 58 59 58 59 58 57 55 41 43 52 47 43 39
56 56 57 58 56 57 58 61 61 61 60 60 59 59 59 59 59 58 58 57 58 59 55 50 42 40 39 41 40 40 38 36
54 54 54 53 53 54 56 61 63 61 61 61 60 59 59 59 58 58 57 53 48 43 41 39 37 37 37 37 37 36 34 34

GFSFLT1_sfc_temp_105.txt.gz
Temp
64 59 59 60 59 59 58 57 57 58 59 59 61 61 61 63 62 62 61 63 62 62 61 59 60 59 57 58 58 54 56 57
60 58 57 57 57 56 56 56 56 58 59 58 58 59 60 61 62 62 63 62 62 61 61 60 59 60 59 58 57 56 53 56
58 56 56 56 56 56 56 56 57 58 58 57 59 59 60 60 61 62 61 61 62 62 61 61 59 60 57 59 58 53 53 56
58 56 56 56 55 55 56 57 57 58 60 59 58 58 60 59 60 62 61 60 62 62 62 62 61 61 59 59 59 55 57 52
60 58 54 55 55 55 56 58 56 57 58 58 59 58 58 59 59 60 61 60 61 62 63 63 62 62 61 61 62 58 58 56
60 58 57 55 55 56 56 57 55 56 59 59 57 58 60 60 58 58 59 60 60 61 61 61 60 61 60 61 60 58 61 58
61 59 56 55 55 55 55 57 58 56 57 59 59 58 58 59 58 56 58 59 59 60 61 60 59 59 58 58 59 59 60 58
59 54 54 55 55 55 56 57 57 56 60 59 58 58 59 59 59 57 56 57 58 59 60 59 59 59 59 58 58 58 57 56
59 55 56 55 55 55 57 57 57 57 56 58 59 59 59 59 60 59 58 58 59 59 60 59 59 59 59 58 57 57 57 57
57 56 55 55 55 55 57 57 56 57 57 58 58 58 58 59 59 59 59 59 58 59 59 59 58 59 59 59 58 57 57 57
58 55 55 56 56 56 57 57 57 57 58 57 57 57 59 59 59 58 58 58 58 57 57 57 57 58 58 58 57 57 57 57
57 58 56 56 55 55 56 56 57 57 58 58 57 58 58 56 58 59 58 58 58 57 57 57 57 57 57 57 57 57 57 58
57 59 56 56 57 57 54 56 57 58 58 58 58 59 58 56 57 59 58 57 58 57 57 57 57 58 58 58 58 58 58 57
55 57 55 56 56 58 58 55 56 57 58 58 58 57 57 57 55 55 58 58 58 58 57 57 58 58 58 58 58 58 56 57
56 55 57 58 58 57 58 58 57 57 57 57 57 57 57 57 57 55 56 57 57 56 58 59 59 59 59 58 56 54 54 55
56 55 56 57 57 58 59 58 58 57 56 56 56 57 57 59 56 55 56 56 57 56 56 56 56 56 56 54 54 53 52 44
56 56 56 55 55 55 57 59 58 59 57 56 58 58 57 57 57 56 55 55 55 56 55 55 54 54 47 46 50 51 46 41
53 53 53 52 52 53 53 55 59 59 58 59 58 58 58 57 58 58 56 54 55 54 53 53 51 47 41 43 42 44 41 39
51 51 52 51 50 51 52 53 55 59 59 59 59 58 58 59 57 57 56 55 54 51 45 43 40 39 39 40 39 38 36 35

GFSFLT1_sfc_temp_108.txt.gz
Temp
61 60 58 59 60 60 60 59 58 57 58 60 62 62 61 62 62 62 62 62 63 63 63 61 60 59 58 60 56 54 56 56
56 55 56 57 58 58 58 58 56 59 59 59 60 60 60 61 62 62 62 62 63 63 61 59 59 59 58 58 57 56 52 56
56 54 55 58 59 58 57 58 57 59 61 60 60 59 60 61 61 62 62 61 63 60 59 59 59 58 57 58 58 52 52 56
56 54 55 56 57 57 57 57 59 58 57 59 57 59 59 59 60 61 61 61 60 60 59 58 59 59 57 58 58 56 55 52
58 55 54 56 58 57 56 58 59 56 57 57 56 57 58 59 59 61 60 60 60 60 60 59 59 60 58 59 60 55 59 54
59 56 57 58 57 55 58 59 57 55 56 58 58 58 59 59 58 59 58 58 59 60 60 59 59 60 59 60 57 57 60 56
58 57 55 57 56 57 58 57 57 54 56 58 58 57 58 58 57 57 57 58 58 58 60 60 59 59 58 58 59 58 60 60
54 54 53 55 55 56 57 57 57 57 55 58 58 57 59 58 57 57 58 57 58 58 59 59 58 58 58 58 57 57 57 57
54 54 53 56 56 56 57 57 57 57 58 58 58 59 59 59 59 58 58 59 58 58 58 59 58 58 58 58 57 56 56 55
55 54 54 57 57 56 58 58 59 58 58 58 58 58 58 59 59 59 59 59 59 59 58 58 59 59 58 58 57 56 56 56
55 55 53 57 56 58 58 58 58 58 58 59 58 58 58 59 59 59 58 58 59 59 58 59 58 58 59 58 57 57 56 56
55 56 55 56 56 57 58 57 57 57 58 55 54 54 58 58 58 58 58 58 58 59 59 59 58 58 59 58 58 57 57 56
57 56 55 54 54 56 57 57 58 58 58 56 54 54 55 54 57 57 58 57 58 57 57 58 58 58 58 58 57 57 57 56
56 56 56 56 55 55 57 57 58 58 59 56 54 54 54 55 56 57 57 57 57 57 57 56 57 58 57 58 58 57 57 57
54 54 56 56 57 56 56 55 56 57 57 58 56 54 55 56 55 56 57 57 57 57 57 57 56 56 57 56 57 56 57 57
53 53 52 53 54 56 57 56 56 56 55 55 56 57 57 57 56 55 56 56 57 57 57 57 57 56 56 56 57 55 53 48
51 52 52 51 51 52 53 54 56 56 56 55 56 56 56 57 56 55 55 55 55 55 55 56 54 54 46 46 52 53 51 45
51 51 50 50 49 50 49 51 54 56 56 56 56 56 56 56 56 55 55 54 55 54 53 52 49 49 42 44 44 49 47 42
48 48 48 47 46 46 47 50 51 51 56 58 57 57 56 56 56 55 54 54 53 53 51 50 46 43 40 41 39 40 38 37

GFSFLT1_sfc_temp_111.txt.gz
Temp
77 74 72 72 70 69 69 68 68 64 64 64 64 65 64 65 64 63 63 63 63 63 66 66 64 63 64 68 65 68 68 68
74 69 66 67 67 67 67 66 65 64 62 61 62 61 62 62 63 63 63 63 62 63 62 61 62 62 63 66 65 64 63 67
73 69 62 62 63 66 65 66 64 65 65 63 67 63 62 63 64 64 65 63 63 63 61 60 60 60 61 63 65 64 64 66
72 70 64 61 62 61 62 64 63 65 67 65 62 63 62 61 62 63 63 63 63 62 62 61 60 60 59 61 65 65 62 64
70 70 67 62 62 62 62 63 63 63 64 64 61 62 62 62 62 63 61 62 62 61 60 61 60 60 60 61 66 67 65 62
66 70 70 66 64 60 61 65 63 61 62 62 61 62 63 62 61 61 61 61 60 59 59 58 59 59 61 61 63 66 67 65
65 66 66 65 64 59 62 64 61 60 63 62 62 62 62 61 60 59 59 58 57 57 57 57 58 58 60 62 63 66 66 66
63 63 62 62 58 58 61 62 58 60 63 64 64 63 62 63 61 59 57 56 55 55 56 56 58 61 62 61 62 63 65 65
62 62 62 61 58 58 59 59 58 60 62 64 65 64 63 63 61 61 58 58 56 57 57 59 61 61 61 61 60 61 63 61
61 62 61 61 59 58 58 59 60 59 62 63 62 61 62 60 61 61 60 59 57 57 57 59 60 60 61 61 60 59 59 59
60 60 60 61 59 58 59 61 60 60 61 61 61 60 61 61 60 60 60 59 58 57 57 58 59 58 60 61 60 60 60 60
58 58 58 58 58 58 58 59 59 59 59 60 59 59 61 60 59 59 60 59 59 58 57 57 57 57 57 58 58 58 59 60
59 57 57 56 57 57 57 58 58 60 59 60 60 60 60 60 58 59 59 58 59 59 58 57 57 56 57 58 58 58 58 57
59 56 54 54 56 57 58 59 59 60 60 61 58 58 59 59 59 58 58 58 58 57 58 58 57 57 57 58 59 58 57 58
59 57 54 53 53 56 57 59 61 62 61 61 59 59 60 58 59 58 58 59 58 58 58 58 58 58 58 58 58 59 58 58
56 53 51 51 50 51 53 56 59 62 62 61 59 60 61 59 58 58 58 58 58 58 57 57 57 57 58 57 58 57 57 54
52 52 49 48 47 47 51 52 53 57 60 60 61 60 60 60 58 57 57 57 57 57 56 56 55 54 46 45 52 55 53 47
50 50 47 46 44 46 46 51 54 54 57 59 59 59 60 59 60 59 57 57 57 56 56 56 54 55 44 45 45 53 50 44
47 47 45 45 46 45 48 51 50 51 50 54 58 59 59 60 60 58 59 59 57 55 54 54 54 54 42 43 41 48 45 42

GFSFLT1_sfc_temp_114.txt.gz
Temp
89 90 90 88 86 85 82 79 78 72 71 68 70 71 69 68 67 66 67 67 68 66 65 66 67 66 70 69 68 74 75 75
89 89 87 83 82 81 79 77 77 68 67 65 66 67 66 69 71 66 64 65 65 65 64 64 65 65 70 69 71 72 71 74
86 86 84 79 80 78 78 79 77 68 68 72 72 66 66 67 67 66 66 64 64 64 63 63 63 66 65 66 70 71 70 74
81 83 83 81 77 77 78 79 78 72 75 71 74 73 68 68 67 66 65 65 64 63 63 62 62 63 63 64 69 71 68 71
80 82 83 81 77 76 75 77 76 74 76 73 73 72 70 70 71 70 66 70 68 64 63 61 61 61 62 63 66 68 71 68
77 80 83 83 77 72 68 71 71 73 75 76 74 73 74 70 72 71 69 67 65 65 63 61 61 60 61 61 64 66 69 73
76 77 78 79 74 67 65 68 67 68 70 74 73 70 68 68 69 67 66 64 63 61 61 61 60 60 59 61 62 65 71 72
74 75 76 76 72 65 63 67 65 63 66 69 71 69 66 66 66 69 64 60 58 58 59 58 59 59 59 60 61 63 68 70
72 72 72 70 66 65 63 65 64 63 67 68 69 68 69 69 72 70 63 60 58 58 57 57 58 58 59 59 60 61 65 68
70 70 70 68 64 63 62 63 64 64 70 70 69 68 68 69 71 67 61 61 57 56 56 56 57 57 58 58 58 58 62 65
65 67 65 65 64 63 62 62 64 64 69 68 69 68 70 70 68 62 60 60 58 56 57 57 57 57 57 58 59 62 64 65
65 61 61 62 61 61 60 60 61 63 65 66 67 66 69 68 66 64 61 59 58 57 58 57 57 59 59 59 62 62 63 64
66 64 57 55 58 59 59 59 60 62 63 64 63 65 68 65 62 61 61 58 58 58 57 58 58 61 62 62 64 64 64 63
66 65 61 52 52 56 57 58 59 62 63 61 62 63 65 66 65 63 61 59 58 57 57 56 57 58 58 60 61 60 61 61
64 62 58 53 50 50 51 56 60 61 61 61 62 65 67 68 68 65 62 60 58 58 58 57 56 56 56 57 58 58 59 59
61 59 55 51 49 49 50 51 53 60 61 62 63 65 67 65 65 66 65 63 61 60 59 58 57 56 56 56 57 58 59 57
59 58 57 51 46 48 49 49 52 54 56 62 64 62 63 64 64 63 63 64 65 65 62 57 56 56 47 46 53 56 57 56
56 55 54 54 49 46 47 47 49 51 52 57 61 61 60 61 64 63 62 61 63 62 60 59 59 57 44 45 45 56 55 49
55 55 54 54 55 49 49 46 47 47 48 48 49 54 59 62 61 62 63 62 60 59 60 60 59 58 43 43 43 50 46 43

GFSFLT1_sfc_temp_117.txt.gz
Temp
91 93 94 96 94 93 90 89 85 82 81 80 81 78 73 74 74 75 74 74 74 72 73 73 72 69 68 65 65 64 68 72
91 92 93 93 92 89 87 86 83 82 79 75 71 71 70 71 73 73 74 72 72 73 71 71 67 65 65 66 65 64 64 75
87 90 90 89 88 85 86 86 84 82 74 71 75 77 74 76 75 73 72 71 71 70 69 67 64 64 64 63 64 63 63 72
86 87 88 88 85 84 84 85 84 80 71 74 78 77 71 70 68 71 71 70 67 66 66 66 64 63 62 63 64 64 61 67
86 86 86 86 86 85 84 85 84 77 71 75 77 74 69 72 73 72 71 72 69 65 64 64 63 63 63 62 65 66 65 66
83 85 87 89 88 83 82 84 83 76 75 78 77 78 76 77 77 74 71 70 70 66 64 62 61 62 62 62 62 64 66 69
82 84 84 86 82 80 77 79 81 77 75 78 76 77 77 77 75 73 69 70 71 67 66 63 62 62 61 61 62 63 65 68
79 80 82 83 80 75 69 71 75 73 72 75 77 77 77 75 75 73 70 69 66 66 64 62 61 61 61 61 61 62 63 65
77 77 78 77 76 74 66 68 68 66 71 73 76 76 76 75 74 75 73 69 68 66 63 61 61 61 60 60 60 61 61 62
75 75 74 73 71 68 65 66 65 64 67 70 73 74 74 73 73 73 73 71 66 66 60 59 60 60 59 59 59 60 60 61
70 70 69 68 67 65 64 65 64 65 68 70 72 73 74 73 70 69 69 66 64 59 57 57 57 58 58 58 59 60 60 61
68 64 63 61 63 64 62 62 62 63 66 69 72 73 73 71 69 69 68 64 62 59 57 57 57 56 57 57 57 59 59 60
68 65 62 58 56 60 61 60 60 62 65 66 69 70 70 69 68 68 66 61 60 57 58 58 57 56 57 57 57 58 59 59
69 67 62 57 53 52 52 58 60 61 64 65 65 66 68 68 67 66 62 59 58 58 58 57 57 57 57 57 57 58 59 60
66 63 60 58 52 51 51 51 53 59 62 64 65 64 65 67 68 67 63 60 58 57 57 58 58 58 58 57 58 58 62 65
63 61 59 58 53 50 50 50 51 53 56 62 62 66 66 67 66 68 66 62 59 59 58 57 57 57 57 58 59 60 61 57
61 61 60 58 54 48 49 48 49 50 51 53 66 66 66 67 67 66 64 64 62 59 57 57 55 55 47 45 52 56 56 55
60 60 59 59 57 51 46 47 48 47 48 48 50 62 62 63 67 66 65 63 65 62 60 58 56 56 45 45 44 55 54 55
59 59 59 59 59 58 53 46 45 44 44 45 46 47 50 58 62 65 65 64 63 61 62 62 58 57 43 44 43 56 54 49

GFSFLT1_sfc_temp_120.txt.gz
Temp
88 89 89 90 84 83 81 81 79 78 77 75 75 75 74 75 72 72 71 71 71 69 68 68 68 66 64 65 63 63 64 63
88 87 86 85 83 82 80 79 78 77 77 74 73 73 71 70 70 70 70 70 70 69 67 67 67 65 65 64 63 62 61 64
84 84 83 81 81 80 79 80 79 79 78 76 75 74 69 69 69 70 69 70 70 69 67 66 66 65 64 64 63 61 61 64
81 82 80 79 79 77 78 79 79 79 77 73 71 70 70 68 68 68 68 70 69 69 67 67 65 64 63 63 62 62 60 62
82 82 81 78 76 76 77 78 78 78 73 70 70 68 68 69 68 68 67 68 67 67 66 66 64 64 63 63 63 61 61 60
80 83 83 82 78 75 75 77 77 74 71 70 70 70 70 69 69 66 67 67 67 66 65 65 64 64 63 62 62 62 62 62
79 80 81 82 76 74 74 76 77 71 70 71 70 71 69 70 69 67 66 66 66 65 64 64 64 63 63 62 62 62 61 62
77 79 79 78 75 73 72 73 74 71 71 70 71 72 72 71 70 69 66 65 65 65 64 62 62 62 62 63 62 62 62 61
74 75 75 75 73 71 67 67 68 71 71 70 70 71 71 71 70 70 67 66 64 65 63 63 62 62 62 61 61 62 62 61
71 71 70 68 68 68 66 65 66 66 66 67 68 68 69 69 70 68 67 67 65 63 63 62 61 61 61 61 60 60 61 61
67 66 64 65 66 65 64 64 63 64 65 65 67 67 68 69 68 67 67 66 64 62 60 60 60 60 60 60 60 60 60 60
64 63 61 59 60 61 63 61 61 62 62 64 65 66 67 68 67 67 65 63 63 60 59 57 57 57 58 59 59 59 59 60
63 61 58 55 54 54 53 58 60 61 62 62 64 64 66 65 65 65 65 63 62 59 58 57 56 57 57 57 57 58 59 59
62 59 57 54 52 51 52 52 53 57 60 61 61 62 64 64 64 64 63 61 60 58 57 57 56 56 56 57 57 57 58 59
61 59 57 54 53 51 50 50 52 53 55 59 59 60 62 63 64 64 61 60 58 57 57 57 56 56 56 57 57 57 58 58
60 57 56 55 52 51 50 49 49 51 52 53 57 60 62 64 64 63 62 59 58 58 57 57 57 56 56 56 56 56 56 56
59 59 58 55 53 51 49 47 47 48 48 48 50 52 63 64 62 62 61 60 58 57 56 56 55 55 45 46 52 55 55 54
58 57 56 57 55 52 48 47 47 46 46 46 47 47 50 54 62 61 60 60 59 57 56 56 55 54 44 44 45 53 53 53
57 56 56 56 56 55 52 49 45 43 43 43 44 45 45 48 51 59 60 59 59 57 56 56 55 55 43 44 42 52 51 50

GFSFLT1_sfc_temp_123.txt.gz
Temp
82 82 82 82 79 73 77 76 75 72 70 69 69 66 66 67 67 67 67 68 67 66 64 64 65 64 62 62 61 61 62 62
82 82 82 75 73 72 75 74 74 71 68 67 67 67 68 65 68 69 66 67 67 66 65 64 65 64 63 62 61 61 60 62
77 73 73 73 75 71 72 74 73 73 72 71 69 69 68 66 69 69 70 68 67 65 65 64 64 64 62 61 61 60 58 62
72 74 72 70 71 68 72 74 73 74 73 70 65 64 63 63 66 66 67 67 66 65 64 64 64 64 63 62 61 61 59 60
73 75 71 70 70 69 73 73 73 73 72 71 68 67 63 64 66 67 67 67 66 66 64 64 63 64 64 63 63 62 62 59
72 72 73 73 69 69 72 72 71 72 71 70 67 66 67 66 67 66 66 66 66 65 64 64 64 64 64 63 62 62 62 61
73 71 70 65 64 64 65 68 66 69 68 68 68 67 64 66 64 64 63 64 64 64 63 63 64 63 63 63 63 62 61 61
65 66 65 64 62 61 62 63 63 63 64 65 66 65 64 65 64 63 61 61 63 62 63 63 62 63 63 63 63 62 61 60
63 62 62 62 61 60 60 61 60 63 63 65 65 65 65 67 68 65 64 63 64 64 63 62 62 62 62 63 62 62 62 61
59 60 60 60 58 57 58 59 59 62 65 64 66 65 66 66 68 67 65 64 63 64 63 62 62 62 62 62 61 61 61 61
56 56 57 57 56 57 58 58 58 60 63 64 65 66 67 66 65 64 64 63 62 60 61 61 61 61 61 61 61 61 61 61
55 54 55 55 55 55 54 57 59 59 60 62 63 64 65 65 64 64 63 62 61 59 59 58 59 59 60 60 60 60 59 60
54 54 53 52 51 52 52 53 54 57 60 60 62 63 63 63 63 63 62 61 60 59 58 57 57 57 58 58 59 59 59 59
53 52 51 50 50 50 50 51 52 54 57 59 59 60 61 61 62 62 61 60 58 57 57 56 56 56 56 57 57 58 58 59
53 51 49 48 48 47 48 48 50 52 53 56 56 58 60 61 61 61 60 59 57 56 56 56 56 56 56 56 57 57 58 58
52 51 49 48 46 45 46 46 47 50 50 50 50 53 55 60 61 60 59 58 56 57 56 56 56 55 55 55 56 56 56 56
54 54 52 49 47 45 46 44 44 46 46 47 49 50 52 53 59 59 59 58 55 55 55 55 55 54 48 46 51 54 55 54
52 51 51 50 47 46 43 43 43 42 43 44 45 47 48 49 52 58 59 57 57 55 55 55 54 54 44 45 45 53 52 51
50 49 48 49 49 46 44 43 43 41 41 41 42 43 45 46 47 48 51 57 57 55 55 55 54 53 42 43 42 52 50 48

GFSFLT1_sfc_temp_126.txt.gz
Temp
80 80 74 76 71 75 75 74 73 72 71 69 68 67 67 67 67 68 68 67 67 66 64 64 64 63 62 61 61 59 61 62
78 81 82 76 75 70 73 73 73 71 68 66 66 66 66 66 67 67 67 67 66 65 64 63 64 63 62 62 60 60 58 60
72 72 76 76 76 67 72 73 72 72 70 70 70 69 66 67 67 66 67 67 67 67 66 64 63 63 61 61 61 58 58 62
72 73 70 69 76 68 71 73 72 73 72 69 64 64 62 64 65 66 67 67 67 67 66 64 64 64 63 62 61 61 58 60
72 74 70 68 68 67 74 74 72 72 71 68 66 66 64 67 67 67 66 67 66 66 65 65 64 65 63 62 61 62 61 59
71 72 71 74 70 67 71 72 72 71 70 70 67 66 67 64 65 64 66 66 66 65 65 64 63 64 64 63 62 62 62 60
73 73 74 66 62 61 65 69 71 70 70 70 69 66 64 63 64 63 64 65 64 64 64 64 64 64 64 63 62 62 62 62
67 60 57 57 57 59 61 63 61 66 68 68 68 66 65 64 64 63 63 62 63 63 64 63 63 64 64 63 62 62 62 61
55 56 56 57 58 58 59 60 61 62 62 64 65 65 66 65 65 64 63 63 63 64 63 63 63 63 62 63 62 62 62 61
53 54 53 54 55 55 57 58 59 60 61 62 61 62 63 63 63 63 63 64 63 63 63 62 61 62 62 62 62 61 61 61
52 52 52 53 53 54 55 56 57 58 62 63 64 62 62 64 63 63 64 64 64 62 62 62 60 61 61 61 61 61 61 61
51 51 52 52 53 52 52 53 54 56 60 61 62 63 62 64 63 64 64 63 62 62 62 61 61 60 60 60 61 61 60 60
51 51 51 50 50 50 50 51 52 55 58 60 60 62 63 62 62 62 62 61 61 60 59 59 58 58 59 59 59 59 59 59
49 49 48 47 47 48 48 48 49 52 55 58 58 59 60 60 60 61 61 60 59 58 58 57 57 56 56 57 57 58 58 59
48 47 46 46 46 46 46 46 48 50 51 52 52 53 57 59 60 60 59 59 58 57 57 55 56 56 56 56 57 56 57 58
48 47 47 46 44 45 43 43 45 47 47 48 48 50 54 57 59 59 59 58 58 57 56 55 55 55 55 55 55 55 56 56
48 49 48 46 44 42 42 41 41 43 44 44 45 47 50 51 52 57 58 57 56 55 54 55 54 54 47 45 50 55 55 54
45 46 45 45 43 42 40 40 43 42 41 42 42 43 45 47 49 51 57 56 56 55 55 55 54 54 44 44 43 53 53 52
42 44 44 45 44 42 41 40 41 40 40 40 40 40 41 43 45 46 48 51 55 55 54 54 54 52 43 43 42 52 50 48

GFSFLT1_sfc_temp_129.txt.gz
Temp
72 73 72 71 71 74 74 71 70 69 69 68 68 66 67 67 68 68 68 67 66 65 63 63 63 63 61 60 59 58 59 59
72 74 74 70 66 71 72 70 70 69 69 67 66 66 66 66 68 68 67 67 66 65 64 63 63 63 63 61 58 59 57 59
68 71 68 69 68 66 72 72 71 70 70 70 69 68 67 67 68 68 67 66 66 65 63 63 64 63 61 60 59 56 58 61
66 70 71 66 66 64 70 73 73 71 71 70 65 64 64 65 65 66 67 66 66 67 65 64 64 63 62 61 61 61 59 61
66 69 70 70 68 68 68 72 73 72 71 69 66 67 65 67 68 68 67 67 66 68 66 65 65 65 63 62 62 62 62 59
65 68 73 74 72 66 66 71 73 72 70 70 68 68 68 66 68 67 66 66 67 67 66 65 64 65 64 63 61 62 62 62
65 70 73 64 58 59 63 69 71 72 70 69 68 68 65 64 66 66 65 65 65 65 65 65 65 64 63 63 63 62 61 62
56 62 65 59 59 56 59 65 66 68 68 68 68 68 65 64 65 65 64 63 64 64 64 63 63 64 64 64 63 62 61 61
54 54 54 56 56 57 58 61 61 66 68 67 67 65 65 64 64 65 64 64 64 64 64 64 64 63 63 63 63 62 62 61
53 54 55 56 56 56 57 59 60 61 61 61 62 64 64 64 64 64 64 65 64 63 64 63 63 63 63 62 62 62 61 61
51 51 52 52 53 54 54 56 58 60 61 62 62 61 62 63 63 62 62 62 62 63 62 62 62 62 62 62 61 61 61 61
51 50 50 50 52 52 52 53 54 56 59 61 61 61 62 61 63 62 62 62 63 62 62 61 61 60 60 61 61 61 60 61
48 48 48 47 48 48 49 50 51 53 57 57 59 61 60 59 60 61 62 61 62 62 61 60 60 59 59 59 59 60 60 60
46 46 45 45 45 45 46 47 48 50 53 54 54 55 59 60 59 59 60 60 60 60 60 59 59 58 58 58 59 59 59 59
46 45 44 44 44 43 43 44 46 47 48 49 48 50 53 58 59 59 59 59 59 58 58 58 57 57 57 57 56 56 56 57
42 44 43 43 42 42 42 42 43 45 45 45 45 48 50 52 54 58 59 58 58 58 57 56 56 56 54 55 55 55 55 55
39 42 42 41 40 39 40 41 41 43 42 42 43 45 47 47 49 51 57 57 57 55 55 55 53 53 46 45 51 54 54 54
36 38 40 41 39 39 38 39 41 41 40 40 41 42 43 44 46 48 48 51 56 55 55 54 54 52 44 44 43 53 53 53
36 37 38 39 40 39 38 38 39 39 38 38 38 39 40 41 42 43 44 46 49 54 54 54 53 51 42 43 41 51 51 48

GFSFLT1_sfc_temp_132.txt.gz
Temp
64 66 66 70 67 70 71 68 68 68 68 67 66 66 68 68 68 68 68 67 65 64 63 62 63 62 61 60 59 58 59 59
63 65 67 67 72 68 68 67 68 68 68 66 66 66 66 67 68 69 68 67 66 64 63 62 63 63 63 60 58 57 57 60
61 62 60 60 66 66 66 68 68 68 70 69 69 69 68 68 68 68 69 67 67 65 63 63 63 63 63 60 59 57 57 60
59 61 62 61 62 65 66 69 70 68 71 70 66 68 66 65 66 67 67 67 66 66 64 63 64 64 62 61 60 60 58 60
59 60 61 62 62 65 66 69 72 69 70 69 68 66 66 67 68 68 67 68 66 66 65 64 64 64 63 62 61 61 61 58
57 59 62 66 67 61 64 65 69 71 70 70 68 68 68 68 68 67 67 67 66 66 65 65 65 64 63 62 61 61 61 61
57 61 63 64 59 59 59 60 65 68 69 70 69 68 67 65 66 66 66 66 66 66 66 65 65 64 64 62 62 61 61 61
49 49 51 57 55 55 57 60 61 66 68 69 68 69 68 66 67 66 65 65 65 65 65 64 64 65 64 63 62 62 61 61
52 55 54 52 53 54 57 60 62 65 67 68 68 68 66 67 67 68 67 66 66 66 65 65 65 65 64 63 63 62 62 61
50 50 51 52 54 56 59 61 61 65 66 66 66 65 65 65 66 66 68 68 66 65 65 64 64 64 63 63 62 62 61 61
48 49 48 49 50 52 54 56 57 59 61 64 64 65 64 64 64 64 65 65 64 63 64 64 63 63 63 62 62 62 61 61
45 46 48 47 47 48 48 51 52 55 59 61 61 61 62 61 61 61 62 62 62 62 63 62 62 61 62 61 61 61 61 61
42 42 45 45 44 45 45 46 48 50 53 55 56 60 61 61 60 60 60 60 61 61 61 61 61 61 61 61 60 60 60 60
39 38 39 42 42 42 43 43 44 47 49 50 51 52 54 58 59 60 60 60 60 60 61 60 60 59 59 59 60 59 60 60
35 35 38 39 39 41 41 42 43 44 45 46 46 48 50 52 57 58 59 60 60 60 60 60 59 59 59 59 58 58 58 58
34 34 35 38 38 38 40 41 41 43 43 42 42 45 47 48 50 53 58 58 58 59 58 57 57 57 57 56 56 56 56 55
32 34 35 37 37 37 37 39 39 41 40 40 41 43 44 44 46 48 50 55 56 57 56 56 55 54 47 44 51 55 54 53
32 32 32 34 37 37 35 36 39 38 38 38 39 40 41 41 43 45 45 47 51 55 55 55 53 53 43 43 43 53 53 53
33 32 33 33 36 38 37 36 36 36 36 36 37 37 38 39 40 40 42 44 46 48 54 54 53 52 42 42 41 52 51 51

GFSFLT1_sfc_temp_135.txt.gz
Temp
68 69 70 71 71 72 72 75 76 73 74 72 72 71 74 73 71 71 70 68 70 71 70 68 67 65 64 64 68 70 72 68
68 68 69 68 69 69 71 71 74 73 72 68 67 67 70 71 70 71 70 69 68 70 70 68 67 65 65 67 69 68 65 68
62 65 67 67 67 68 70 73 75 74 74 73 73 72 70 72 72 70 70 69 68 68 70 68 67 67 66 66 68 65 66 67
62 62 65 67 66 66 70 72 74 75 74 73 73 72 70 68 68 68 69 69 68 68 69 68 67 67 65 65 69 68 66 64
60 60 62 66 66 67 68 70 73 76 75 73 70 69 68 70 70 71 70 69 68 68 68 69 67 67 65 64 68 70 70 64
55 59 62 68 67 66 67 69 72 76 73 74 72 72 74 74 71 69 69 68 68 68 67 68 67 66 66 65 64 67 70 70
53 56 60 63 65 65 66 67 71 73 74 74 73 72 73 72 70 68 67 67 67 67 67 67 68 67 67 65 65 67 68 70
49 49 50 54 60 65 65 67 70 71 73 73 73 73 73 71 69 70 67 65 65 65 66 66 68 68 67 65 64 65 68 68
46 46 47 48 52 60 64 68 69 71 73 72 73 74 72 73 72 73 70 68 69 68 66 67 68 67 67 65 64 64 67 66
41 42 43 46 46 50 57 66 68 70 72 72 72 73 71 71 72 73 70 70 68 68 66 66 67 67 68 66 64 63 63 63
38 40 40 43 45 46 48 54 56 59 67 71 72 72 69 69 70 70 71 71 68 67 66 66 66 66 67 64 64 64 63 63
37 37 40 40 43 44 45 48 51 52 54 61 67 67 67 68 68 69 69 68 66 66 65 65 64 64 64 63 63 63 62 62
35 36 37 37 38 41 42 44 46 49 51 52 55 58 61 63 63 63 64 63 63 63 63 64 64 64 64 63 62 62 61 61
34 33 33 34 37 38 40 42 43 45 48 47 49 50 52 54 61 64 63 63 61 61 61 61 62 63 63 62 62 61 61 62
32 32 32 33 35 36 38 39 41 42 42 42 44 45 46 49 52 56 61 61 61 61 61 61 61 62 62 62 61 61 62 63
32 31 32 32 33 34 36 38 38 39 39 40 41 43 45 47 48 50 54 59 60 60 60 60 61 61 61 61 62 62 62 60
32 31 31 32 34 35 36 36 37 38 38 38 40 41 43 44 45 47 48 51 56 58 58 58 58 57 47 47 54 60 60 58
32 31 31 32 34 36 36 38 39 39 38 37 37 38 39 40 42 44 44 46 51 52 56 56 57 58 46 46 46 58 61 61
33 33 34 34 34 36 38 38 38 38 37 37 37 36 37 37 39 39 41 43 45 47 45 48 55 47 42 41 41 59 58 55

GFSFLT1_sfc_temp_138.txt.gz
Temp
76 77 77 77 77 78 77 77 78 79 82 81 82 82 83 84 83 82 76 73 78 79 81 80 79 79 78 76 71 77 77 74
76 75 75 73 75 75 76 76 76 79 81 80 80 79 80 82 82 80 79 73 77 77 80 77 74 76 75 73 74 76 77 76
71 70 69 68 70 73 75 77 78 79 81 83 82 81 81 82 81 80 79 74 74 78 79 77 70 74 73 72 75 76 73 71
63 63 63 64 66 71 75 77 78 79 80 84 81 76 78 79 80 78 79 75 72 74 78 78 71 75 70 69 75 74 69 68
56 55 56 55 59 64 71 76 77 79 79 81 79 75 72 77 78 79 78 76 72 71 75 77 74 75 74 70 77 76 75 67
49 48 51 50 53 57 63 74 75 77 78 79 80 77 76 80 79 76 76 74 73 70 71 73 72 72 75 73 72 75 76 75
46 45 46 46 46 50 57 71 74 75 76 78 78 77 78 79 77 75 76 74 70 70 70 71 71 71 71 71 71 73 76 75
42 41 38 42 42 45 53 67 72 74 74 77 79 78 76 77 74 75 73 70 67 68 68 68 69 70 70 70 69 70 73 74
43 39 37 40 41 43 47 55 71 75 75 76 79 80 81 81 82 80 77 74 71 70 68 69 70 70 70 69 69 69 73 74
41 38 37 39 40 41 44 47 60 75 75 77 79 80 80 80 80 80 79 77 73 70 68 68 68 69 69 69 68 68 71 71
39 37 35 38 40 41 41 44 47 56 69 78 79 79 79 80 79 78 78 77 75 70 67 67 67 68 69 68 68 70 69 68
37 36 34 37 39 39 40 42 44 49 51 57 66 74 76 78 77 76 75 74 73 70 69 68 66 67 67 66 67 71 68 67
38 36 34 35 36 37 38 40 42 46 48 50 51 54 58 62 70 74 74 73 70 68 66 65 65 65 65 65 66 68 67 64
37 34 32 32 34 36 37 39 40 43 47 45 45 50 53 52 55 59 64 64 64 64 63 63 63 64 63 64 66 66 65 64
35 32 32 32 33 34 36 37 39 41 44 44 43 45 47 53 55 53 56 66 66 66 69 68 65 63 63 63 64 66 65 63
34 31 31 32 32 33 35 36 38 39 41 43 40 45 45 50 48 51 53 55 64 68 67 66 64 63 63 61 62 64 64 62
35 33 32 32 32 35 35 35 37 39 36 36 40 40 41 42 44 46 48 50 54 59 61 61 61 60 48 48 56 62 65 64
35 34 33 33 34 35 35 38 39 38 34 36 38 37 37 39 41 43 43 46 49 50 50 56 52 45 40 45 46 60 59 61
37 38 37 37 38 38 37 40 40 39 39 39 37 37 37 39 39 39 41 43 44 43 44 46 45 40 38 40 41 59 59 59